Fort Wayne, IN

6:56 PM EDT on May 23, 2017 (GMT -0400)
Fort Wayne International

Weather History for KFWA - November, 2013

Change the Weather History Date:

Monday, November 18, 2013

  Actual Average Record
Temperature  
Mean Temperature 40 °F 40 °F  
Max Temperature 47 °F 49 °F 72 °F (1930)
Min Temperature 32 °F 32 °F 9 °F (2014)
Degree Days  
Heating Degree Days 25 25  
Month to date heating degree days 393 377  
Since 1 July heating degree days 897 886  
Cooling Degree Days 0 0  
Month to date cooling degree days 0 0  
Year to date cooling degree days 855 809  
Moisture  
Dew Point 32 °F    
Average Humidity 68    
Maximum Humidity 82    
Minimum Humidity 53    
Precipitation  
Precipitation 0.00 in 0.11 in 1.88 in (1969)
Month to date precipitation 0.93 1.80  
Year to date precipitation 38.82 34.28  
Snow  
Snow 0.00 in 0.10 in 3.00 in (1986)
Month to date snowfall 0.5 0.7  
Since 1 July snowfall 0.5 1.0  
Since 1 September snowfall 0.5 1.0  
Snow Depth 0.00 in    
Sea Level Pressure  
Sea Level Pressure 29.96 in    
Wind  
Wind Speed 15 mph (West)    
Max Wind Speed 28 mph    
Max Gust Speed 37 mph    
Visibility 10 miles    
Events      
T = Trace of Precipitation, MM = Missing Value Source: NWS Daily Summary

Daily Weather History Graph

Daily Weather History Graph

Search for Another Location

Airport or City:

Trip Planner

Search our weather history database for the weather conditions in past years. The results will help you decide how hot, cold, wet, or windy it might be!

Date:

Astronomy

Nov. 18, 2013 Rise Set
Actual Time 7:32 AM EST 5:19 PM EST
Civil Twilight 7:02 AM EST 5:49 PM EST
Nautical Twilight 6:28 AM EST 6:22 PM EST
Astronomical Twilight 5:56 AM EST 6:55 PM EST
Moon 6:21 PM EST (11/18) 8:20 AM EST (11/18)
Length of Visible Light 10h 47m
Length of Day
9h 47m
Full, 99% of the Moon is Illuminated
Nov 18
Full
Nov 25
Last Quarter
Dec 2
New
Dec 9
First Quarter
Dec 17
Full

Hourly Weather History & Observations

Time (EST) Temp. Windchill Dew Point Humidity Pressure Visibility Wind Dir Wind Speed Gust Speed Precip Events Conditions
12:54 AM 45.0 °F 37.4 °F 37.9 °F 76% 29.72 in 10.0 mi West 18.4 mph 26.5 mph N/A   Scattered Clouds
1:54 AM 43.0 °F 34.2 °F 37.0 °F 80% 29.76 in 10.0 mi WSW 20.7 mph 28.8 mph N/A   Partly Cloudy
2:54 AM 42.1 °F 33.3 °F 35.1 °F 76% 29.78 in 10.0 mi West 19.6 mph 28.8 mph N/A   Partly Cloudy
3:54 AM 42.1 °F 33.9 °F 35.1 °F 76% 29.80 in 10.0 mi West 17.3 mph 28.8 mph N/A   Clear
4:54 AM 41.0 °F 32.2 °F 35.1 °F 79% 29.81 in 10.0 mi WSW 18.4 mph 24.2 mph N/A   Clear
5:54 AM 41.0 °F 31.6 °F 35.1 °F 79% 29.82 in 10.0 mi West 20.7 mph 31.1 mph N/A   Clear
6:54 AM 41.0 °F 31.9 °F 35.1 °F 79% 29.83 in 10.0 mi WSW 19.6 mph 27.6 mph N/A   Partly Cloudy
7:54 AM 39.9 °F 30.8 °F 34.0 °F 79% 29.85 in 10.0 mi West 18.4 mph 26.5 mph N/A   Partly Cloudy
8:54 AM 39.9 °F 30.2 °F 33.1 °F 77% 29.87 in 10.0 mi West 20.7 mph 28.8 mph N/A   Partly Cloudy
9:54 AM 41.0 °F 30.9 °F 32.0 °F 70% 29.90 in 10.0 mi West 24.2 mph 32.2 mph N/A   Scattered Clouds
10:25 AM 42.8 °F 33.3 °F 33.8 °F 70% 29.90 in 10.0 mi West 24.2 mph 32.2 mph N/A   Mostly Cloudy
10:54 AM 43.0 °F 34.0 °F 32.0 °F 65% 29.92 in 10.0 mi West 21.9 mph 29.9 mph N/A   Mostly Cloudy
11:54 AM 43.0 °F 34.0 °F 32.0 °F 65% 29.94 in 10.0 mi West 21.9 mph 29.9 mph N/A   Mostly Cloudy
12:30 PM 42.8 °F 34.0 °F 30.2 °F 61% 29.93 in 10.0 mi WNW 20.7 mph 26.5 mph N/A   Mostly Cloudy
12:54 PM 43.0 °F 34.2 °F 30.0 °F 60% 29.96 in 10.0 mi WNW 20.7 mph 31.1 mph N/A   Mostly Cloudy
1:54 PM 46.0 °F 38.5 °F 30.9 °F 56% 29.96 in 10.0 mi West 19.6 mph 27.6 mph N/A   Mostly Cloudy
2:54 PM 44.1 °F 36.8 °F 30.0 °F 58% 30.00 in 10.0 mi WNW 16.1 mph 24.2 mph N/A   Mostly Cloudy
3:54 PM 42.1 °F 36.6 °F 28.9 °F 60% 30.04 in 10.0 mi NW 9.2 mph - N/A   Mostly Cloudy
4:54 PM 39.9 °F 33.4 °F 28.0 °F 63% 30.08 in 10.0 mi NW 10.4 mph - N/A   Mostly Cloudy
5:54 PM 37.9 °F 32.7 °F 28.0 °F 68% 30.11 in 10.0 mi WNW 6.9 mph - N/A   Scattered Clouds
6:54 PM 37.0 °F 32.4 °F 28.9 °F 73% 30.13 in 10.0 mi WNW 5.8 mph - N/A   Mostly Cloudy
7:54 PM 36.0 °F 30.3 °F 28.0 °F 73% 30.14 in 10.0 mi WNW 6.9 mph - N/A   Partly Cloudy
8:54 PM 35.1 °F 31.0 °F 28.0 °F 76% 30.17 in 10.0 mi WNW 4.6 mph - N/A   Mostly Cloudy
9:54 PM 35.1 °F 30.1 °F 27.0 °F 72% 30.18 in 10.0 mi WNW 5.8 mph - N/A   Mostly Cloudy
10:54 PM 32.0 °F 26.4 °F 27.0 °F 82% 30.19 in 10.0 mi West 5.8 mph - N/A   Scattered Clouds
11:54 PM 35.1 °F 31.0 °F 27.0 °F 72% 30.21 in 10.0 mi WNW 4.6 mph - N/A   Mostly Cloudy